Location: Table Mountain
(47.2500°N, 120.5778°W)
Time: 21:10:49
(UTC-07:00)

OTV 5 (USA 277) - Pass Details

Date: 14 October 2017
Orbit: 404 x 417 km, 43.0° (Epoch: 07 September)

Event Time Altitude Azimuth Distance (km) Brightness Sun altitude
Rises 19:39:00 0° 252° (WSW) 2,347 ? -14.9°
Reaches altitude 10° 19:41:11 10° 244° (WSW) 1,485 ? -15.3°
Maximum altitude 19:44:20 38° 174° (S) 651 ? -15.8°
Enters shadow 19:45:15 31° 136° (SE) 758 ? -15.9°
